This demonstration page uses our WeatherBlox Daily Observations layout. Learn more.

Left ArrowRight Arrow

53.62937, 11.41316

Hourly Observations for February 21, 2018

Temp ( °F °C ) Dew Point ( °F °C ) Humidity (%) Winds ( mph kmh ) Pressure ( in mb ) Visibility ( mi km ) Precip ( " mm )
7:50 am 07:50 Mostly Sunny 21 -6 21 -6 100 100 VRB 1 2 30.33 1027 7 11 N/A
8:20 am 08:20 Mostly Sunny 21 -6 21 -6 100 100 SSW 2 4 30.33 1027 7 11 N/A
8:50 am 08:50 Mostly Sunny 25 -4 23 -5 93 93 VRB 1 2 30.33 1027 7 11 N/A
9:20 am 09:20 Mostly Sunny 28 -2 27 -3 93 93 VRB 1 2 30.33 1027 7 11 N/A
9:50 am 09:50 Mostly Sunny 30 -1 28 -2 93 93 VRB 2 4 30.36 1028 7 11 N/A
10:50 am 10:50 Mostly Sunny 34 1 27 -3 75 75 NNW 3 6 30.36 1028 7 11 N/A
11:20 am 11:20 Mostly Sunny 36 2 28 -2 75 75 VRB 2 4 30.33 1027 7 11 N/A
11:50 am 11:50 Mostly Sunny 36 2 27 -3 70 70 N 3 6 30.33 1027 7 11 N/A
12:20 pm 12:20 Mostly Sunny 36 2 27 -3 70 70 N 5 7 30.33 1027 7 11 N/A
12:50 pm 12:50 Mostly Sunny 36 2 27 -3 70 70 N 6 9 30.33 1027 7 11 N/A
1:20 pm 13:20 Mostly Cloudy 37 3 25 -4 60 60 NNE 6 9 30.33 1027 30 48 N/A
1:50 pm 13:50 Mostly Cloudy 37 3 23 -5 56 56 NNE 7 11 30.33 1027 30 48 N/A
2:20 pm 14:20 Mostly Cloudy 37 3 21 -6 52 52 N 6 9 30.30 1026 30 48 N/A
2:50 pm 14:50 Mostly Cloudy 37 3 21 -6 52 52 NNE 6 9 30.30 1026 30 48 N/A
3:20 pm 15:20 Mostly Cloudy 37 3 21 -6 52 52 N 6 9 30.30 1026 30 48 N/A
3:50 pm 15:50 Partly Cloudy 37 3 21 -6 52 52 NNE 3 6 30.30 1026 30 48 N/A
4:20 pm 16:20 Mostly Sunny 36 2 21 -6 56 56 NE 5 7 30.30 1026 7 11 N/A
4:50 pm 16:50 Mostly Sunny 36 2 23 -5 60 60 NNE 3 6 30.30 1026 7 11 N/A
5:20 pm 17:20 Mostly Sunny 34 1 25 -4 70 70 NNE 5 7 30.33 1027 7 11 N/A
5:50 pm 17:50 Mostly Clear 30 -1 25 -4 80 80 NE 5 7 30.33 1027 7 11 N/A

Powered by AerisWeather